CONNECTA IOT-7

导读

CONNECTA IOT-7是由土耳其于2025年1月14日发射的一颗物联网卫星。作为土耳其低轨物联网星座布局中的一员,它主要服务于物联网领域的万物互联需求,可提供广覆盖、低功耗的物联网连接服务,支持偏远地区的设备监测、智慧城市等多场景应用,助力土耳其拓展天地一体化物联网网络建设,推动本国卫星物联网产业发展。

基本信息
目录编号:
62715
目录名称:
CONNECTA IOT-7
国际标识:
2025-009DL
轨道中心:
EARTH
卫星名称:
CONNECTA IOT-7
卫星全名:
CONNECTA IOT-7
卫星状态:
在轨 (已飞行599 天)
发射日期:
2025-01-14 UTC
国别 :
土耳其 (TR)
星等 :
--
轨道信息
数据来源 国际轨道数据
星历时间: 2026-09-05T12:37:53+0800
5小时前
查看轨道信息
半长轴: 6962.553km
偏心率: 0.0000406
轨道倾角: 97.703°
近地点辐角 25.087°
升交点赤经 325.470°
平近点角 335.038°
近地点: 584.133km
远地点: 584.699km
周期: 96.363分钟
每日圈数: 14.943422
详细信息
使用方式:
暂无
2D轨道图
3D轨道图
轨道高度分析图
轨道倾角分析图
轨道综合分析图
查看轨道综合分析图
交会数据列表
事件ID 空间交会对象 最接近时刻(TCA) 交会距离 交会风险概率(CRP) 交会风险指数(CRI) 操作
CDM_260906-035306-271506-992722
2026-09-06T
03:53:45+0000
2.227 km
极远距离
2.230635E-6 低风险 0.42
CDM_260905-073003-701706-271522
2026-09-05T
07:30:20+0000
2.624 km
极远距离
1.49407E-6 低风险 0.38